Temperature
20 21 22 23 22 20 20 19 20 20 20 20 19 18 19 20 20 20 20 21 21 21 20 20 19 19 19 18 18 18 17 17 17 17 16 16 16 16 16 16 16 16 15 15
21 21 22 23 23 21 22 21 21 21 21 19 19 20 19 19 20 19 20 21 21 20 20 20 19 19 19 18 18 17 17 17 16 16 16 16 16 16 15 15 15 15 15 15
19 21 22 22 22 22 22 22 21 22 21 19 18 18 19 20 20 20 21 21 21 21 20 20 19 19 19 18 18 17 17 17 16 16 16 16 15 15 15 15 15 15 15 15
17 20 21 21 21 22 22 22 20 21 20 18 18 20 20 21 21 21 21 21 21 21 20 20 19 19 18 18 17 17 17 16 16 16 16 15 15 15 15 15 15 14 14 14
16 18 20 21 21 21 21 22 20 19 19 18 18 19 19 20 21 22 22 22 21 20 20 20 19 18 18 18 17 17 16 16 16 16 15 15 15 15 15 14 14 14 14 14
15 19 19 20 21 21 22 21 20 18 17 17 18 18 18 21 21 21 21 21 20 20 19 19 18 18 17 17 17 17 16 16 16 15 15 15 15 15 14 14 14 14 13 13
16 18 18 19 19 21 21 21 20 19 18 18 18 19 21 21 21 20 20 20 20 19 19 18 18 17 17 17 17 16 16 15 15 15 15 15 14 14 14 14 13 13 13 13
14 17 18 18 19 19 19 19 20 20 20 19 19 20 20 20 20 19 19 19 19 19 18 18 17 17 17 16 16 15 15 15 15 14 14 14 14 14 14 13 13 13 12 12
14 15 16 16 16 18 18 19 19 20 20 20 19 19 19 19 18 18 18 18 18 18 18 17 17 16 16 16 15 15 15 14 14 14 14 13 13 13 13 13 13 12 12 12
14 14 15 15 16 17 18 19 20 20 20 20 19 18 18 18 17 17 17 17 17 17 17 16 16 16 16 15 15 14 14 14 14 14 13 13 13 13 12 12 12 12 12 11
14 14 15 16 16 17 18 19 19 19 19 19 19 18 18 17 17 17 16 16 16 16 16 16 15 15 15 15 14 14 14 13 13 13 13 12 12 12 11 11 11 11 11 11
13 14 13 15 16 16 17 18 18 18 18 18 18 18 17 17 16 16 16 16 15 15 15 15 15 15 14 14 14 14 13 13 13 12 12 12 11 11 11 11 10 10 10 10
15 15 15 15 16 16 17 17 17 18 17 17 17 17 17 16 16 15 15 15 15 15 15 14 14 14 14 13 13 13 13 12 12 12 12 11 11 11 10 10 9 9 9 9
15 15 15 15 15 16 16 16 16 16 16 16 16 16 16 15 15 14 14 14 14 14 14 13 13 13 13 13 13 12 12 12 12 11 11 11 10 10 10 10 9 9 8 8
15 15 15 15 15 15 15 16 16 15 15 15 15 15 15 15 14 14 13 13 13 13 13 13 12 12 12 12 12 12 11 11 11 11 10 10 10 10 9 9 9 8 8 7
15 15 15 15 15 15 15 15 15 15 15 15 14 14 14 14 13 13 13 12 12 12 12 12 12 12 11 11 11 11 11 11 10 10 10 10 9 9 9 8 8 8 7 7
14 14 14 14 14 15 15 15 15 14 14 14 14 14 13 13 12 12 12 11 12 12 11 11 11 11 11 11 11 10 10 10 10 10 9 9 9 9 8 8 8 7 7 7
14 15 15 15 15 15 15 14 14 14 14 13 13 13 12 12 12 11 11 11 11 11 11 11 10 10 10 10 10 10 10 9 9 9 9 9 8 8 8 8 7 7 7 6
14 14 14 14 15 15 14 14 14 13 13 13 12 12 12 11 11 11 11 11 11 10 10 10 10 10 10 10 10 9 9 9 9 9 8 8 8 8 7 7 7 7 7 6
14 14 14 14 14 14 14 14 13 13 12 12 12 12 11 11 11 10 10 10 10 10 10 10 10 10 9 9 9 9 9 9 9 8 8 8 8 7 7 7 7 7 7 6
13 13 13 13 13 13 13 13 13 12 12 12 11 11 11 11 10 10 10 10 10 10 9 9 9 9 9 9 9 9 9 8 8 8 8 8 8 7 7 7 7 7 7 6
12 12 13 13 13 12 12 12 12 12 11 11 11 11 10 10 10 10 9 9 9 9 9 9 9 9 9 9 8 8 8 8 8 8 8 8 8 7 7 7 7 7 7 6
12 12 12 12 12 12 12 11 11 11 11 11 10 10 10 10 10 10 9 9 9 9 9 9 9 9 8 8 8 8 8 8 8 8 8 8 8 8 7 7 7 7 7 6
12 11 11 11 11 11 11 11 11 10 10 10 10 10 10 10 9 9 9 9 9 9 9 9 9 8 8 8 8 8 8 8 8 8 8 8 8 8 7 7 7 7 7 7
11 11 11 11 11 11 11 10 10 10 10 10 10 9 9 9 9 9 9 9 9 9 9 9 8 8 8 8 8 8 8 8 8 8 8 8 8 8 8 7 7 7 7 7
10 10 10 10 10 10 10 10 10 10 9 9 9 9 9 9 9 9 9 9 8 8 8 8 8 8 8 8 8 8 8 8 8 8 8 8 8 8 8 8 8 7 7 7
9 9 9 10 10 10 10 10 10 9 9 9 9 9 9 9 9 8 8 8 8 8 8 8 8 8 8 8 8 8 8 8 8 8 8 8 8 8 8 8 8 8 7 7
Wind_Speed
7 6 6 6 8 9 8 10 10 10 10 12 12 12 10 8 7 8 7 8 8 7 6 6 6 6 5 5 5 5 6 5 4 3 3 3 3 3 3 3 3 3 3 3
3 4 6 5 7 10 7 6 7 5 9 8 5 6 7 8 9 10 9 9 8 8 8 7 7 7 6 6 6 6 5 5 4 4 4 4 4 4 4 4 4 4 4 4
3 2 5 5 8 9 6 6 8 8 9 4 6 11 13 12 11 10 10 9 9 8 8 7 7 7 7 6 6 6 6 5 5 5 5 5 5 5 5 4 5 5 5 5
3 4 6 9 4 6 6 5 6 6 5 8 9 7 6 7 10 10 10 9 8 7 7 6 5 6 6 7 7 6 6 5 5 5 5 5 5 5 5 5 5 5 5 6
4 4 4 5 2 5 6 5 5 6 4 4 6 5 0 4 7 9 9 8 7 6 6 6 7 7 8 7 6 6 5 5 5 5 6 6 6 6 5 6 6 5 5 6
5 5 7 8 3 2 5 3 4 6 7 8 9 6 6 6 8 7 7 6 6 6 7 7 6 7 8 7 6 5 5 5 5 5 6 6 6 6 6 6 7 7 7 6
5 4 7 6 4 2 6 8 4 7 9 11 8 6 4 9 8 8 8 8 8 8 7 6 6 7 7 6 5 4 5 6 5 5 5 6 6 6 7 7 8 7 8 7
6 5 7 3 0 5 6 2 3 6 7 8 6 6 8 9 10 10 10 9 8 8 7 5 6 7 7 5 4 5 6 6 6 5 5 6 7 7 7 8 8 8 7 7
7 7 4 2 3 4 2 2 2 4 6 9 9 7 8 8 9 9 9 8 7 7 7 5 5 5 6 4 4 5 6 6 5 5 5 6 7 7 7 6 7 6 6 6
2 4 4 3 3 2 0 1 1 4 7 8 9 9 10 9 9 8 7 7 6 7 6 4 3 4 5 5 5 6 6 5 6 6 6 6 5 5 5 6 6 6 6 6
2 4 4 4 3 2 2 5 7 7 6 7 10 10 9 9 9 8 7 5 6 6 6 5 4 4 4 5 6 7 6 6 6 6 7 6 6 5 4 3 3 6 6 7
5 4 3 3 2 1 3 5 7 8 7 6 7 9 9 9 7 7 8 6 6 6 6 5 4 4 4 4 6 7 7 6 5 5 6 6 7 7 12 9 11 10 9 8
4 2 3 2 0 1 3 4 6 7 8 7 6 7 8 7 6 7 7 7 6 6 5 5 5 4 4 4 5 7 7 7 6 6 6 6 6 7 7 9 12 12 11 11
4 2 1 1 1 2 5 6 8 8 8 8 7 8 8 8 7 7 6 6 6 6 6 5 5 4 4 5 6 7 7 7 7 6 6 6 6 6 6 7 7 6 7 10
3 3 4 3 3 3 4 6 8 7 7 7 8 9 9 9 8 6 5 6 7 7 6 5 5 4 4 6 7 7 7 6 6 6 6 6 6 6 6 7 7 6 6 6
1 3 4 4 5 4 4 5 7 6 6 7 7 8 8 8 8 7 6 6 7 6 5 5 5 5 6 7 7 6 6 9 8 7 7 6 6 6 6 7 7 6 6 6
4 5 5 5 6 6 5 5 6 6 6 8 8 9 10 10 8 7 6 5 5 6 5 6 5 5 6 7 7 6 6 7 10 8 6 6 6 6 6 6 6 6 5 5
7 7 7 8 8 7 6 6 6 6 6 7 9 9 9 9 8 7 6 7 7 6 5 5 6 6 7 7 6 6 6 6 6 6 6 5 6 6 6 6 6 6 5 5
4 5 5 5 6 7 6 6 7 6 7 8 9 9 8 7 7 7 7 7 7 5 3 5 8 7 7 7 8 6 7 7 6 6 6 7 6 5 5 5 6 6 6 5
3 4 5 5 6 7 7 7 8 7 7 8 9 9 8 7 8 8 8 6 3 3 5 6 7 6 6 7 8 6 6 7 6 6 6 5 5 5 5 5 5 5 5 5
4 5 5 6 6 6 7 8 9 8 8 8 9 9 8 8 7 7 7 5 3 5 6 8 6 5 5 6 7 6 6 6 6 5 5 5 5 5 5 5 5 5 5 5
4 5 5 6 8 7 6 7 8 9 9 8 8 9 9 8 7 6 4 4 4 6 6 5 5 6 7 7 5 5 5 5 5 5 5 5 5 5 5 5 5 5 5 5
4 5 6 7 8 8 8 8 8 9 9 9 9 9 8 6 5 5 4 3 4 6 5 4 6 9 9 5 4 4 5 4 4 4 5 5 5 5 5 6 5 5 5 6
5 6 6 7 8 10 9 8 8 7 8 7 7 7 7 6 4 3 4 6 7 7 4 5 8 9 7 4 4 4 4 4 4 4 4 4 5 5 5 5 5 5 6 6
6 7 8 9 8 7 8 9 9 9 8 6 6 6 5 4 4 4 5 6 7 7 4 5 7 7 5 4 4 4 4 4 4 4 4 4 5 5 5 5 6 6 6 7
7 7 6 6 6 6 7 7 6 6 6 6 4 4 4 4 5 5 5 5 6 6 4 3 4 4 3 3 3 3 3 3 4 4 4 4 5 5 5 6 7 7 7 7
8 7 7 7 7 6 6 6 6 6 5 6 5 4 4 5 5 5 5 4 4 3 3 2 2 3 3 3 3 3 3 3 3 3 4 4 5 5 6 7 6 7 7 7
Wind_Direction
220 209 178 187 178 169 172 177 180 220 223 240 221 206 200 186 166 155 158 158 159 161 160 154 146 143 143 140 136 136 135 135 136 131 128 127 122 113 111 116 121 129 131 124
247 219 195 203 196 181 187 180 201 219 249 249 198 165 179 184 174 172 173 168 165 163 163 162 160 156 149 147 144 138 137 134 125 119 117 114 110 105 98 92 90 95 105 111
228 256 129 219 208 185 186 189 175 202 234 183 174 187 191 188 183 182 177 172 172 171 169 168 166 156 152 147 139 136 133 128 125 121 115 113 113 106 100 92 88 85 87 95
151 116 194 236 240 182 176 204 205 217 228 195 196 184 179 179 181 179 172 172 174 168 159 153 146 139 132 129 132 134 132 129 127 127 123 118 115 111 105 98 95 93 89 93
135 171 249 286 219 168 166 224 212 206 205 146 117 92 321 199 181 180 172 164 158 151 144 137 137 136 130 127 127 128 131 131 133 137 136 129 124 120 114 109 101 96 95 97
134 154 211 232 246 196 130 247 233 181 169 152 134 160 222 185 164 151 132 125 126 126 121 128 135 134 133 136 136 141 142 134 128 133 136 134 129 122 112 109 105 100 90 87
153 186 246 251 283 128 160 229 218 180 174 168 179 197 160 137 139 131 123 118 119 120 120 125 132 133 132 133 141 141 129 123 118 118 126 127 120 116 115 113 106 99 92 82
147 170 237 301 88 179 218 254 185 179 175 164 142 112 115 124 127 124 119 112 113 116 112 109 118 127 129 132 134 125 124 123 121 122 129 129 123 119 118 118 113 109 104 93
187 206 247 296 264 287 254 223 205 167 156 144 133 126 119 117 118 117 116 116 115 120 116 106 107 123 130 130 124 126 125 125 123 119 114 122 128 129 125 125 125 125 121 114
252 275 295 310 314 331 312 191 137 131 133 134 128 126 121 120 118 116 114 118 123 123 120 113 106 106 119 131 132 131 129 126 123 120 114 108 110 121 132 138 138 137 135 130
254 283 319 336 346 353 63 95 96 93 102 119 124 126 129 128 128 126 119 116 123 130 132 129 119 110 114 128 133 132 131 129 125 122 120 111 96 81 101 93 134 147 147 143
219 231 210 258 296 17 98 110 113 110 102 103 122 131 130 130 131 127 123 123 123 122 124 124 127 125 122 128 136 135 135 133 130 127 123 120 114 89 63 75 84 90 101 115
222 221 206 234 336 74 101 107 108 112 118 116 112 122 127 125 123 121 122 126 128 127 125 122 121 119 120 130 133 133 136 135 131 129 129 128 127 123 110 78 74 81 95 107
212 176 176 197 170 105 106 104 99 95 102 115 119 116 114 115 118 122 128 128 122 119 117 117 116 114 115 122 124 123 125 130 132 131 131 132 130 127 127 127 115 88 81 102
237 195 182 152 117 111 116 114 108 110 115 116 118 121 123 125 127 125 121 118 116 117 119 121 120 118 117 119 119 123 128 131 127 124 123 123 123 122 122 123 122 117 109 98
203 139 136 142 146 143 130 129 132 135 133 128 127 127 125 123 122 118 116 122 130 133 131 126 123 124 122 121 121 119 120 128 126 124 122 122 124 126 128 129 129 131 132 132
182 187 177 173 172 165 160 157 147 142 141 138 138 131 124 123 122 122 121 118 120 124 126 124 123 122 123 124 125 124 122 128 126 121 125 130 133 135 137 139 141 142 142 145
216 212 195 180 176 172 164 148 136 139 142 141 135 131 133 137 141 140 131 120 111 102 99 112 119 121 121 121 120 121 123 125 126 127 128 130 131 134 137 141 148 148 143 141
215 193 187 177 168 160 155 148 141 135 133 135 138 138 137 136 135 132 128 124 123 120 114 115 121 118 119 125 123 121 126 127 123 122 124 126 128 134 141 148 152 155 155 156
176 158 159 161 155 151 151 144 136 131 131 135 132 128 129 129 130 130 126 121 124 134 136 131 126 121 121 128 125 124 127 127 128 129 131 137 141 144 149 155 158 160 164 169
145 143 146 148 142 138 141 141 139 137 135 135 135 136 133 128 126 126 125 119 105 119 129 130 128 128 126 131 129 127 127 129 133 139 145 149 151 156 162 166 167 171 176 181
127 134 136 137 134 131 130 132 134 133 130 126 124 126 126 125 122 112 103 119 131 132 133 134 132 131 134 132 132 135 137 138 141 147 153 160 165 169 174 176 179 183 185 188
112 119 122 127 131 128 120 121 127 130 132 133 134 134 133 131 132 128 121 120 133 137 134 138 139 136 133 131 137 143 148 152 159 168 174 177 181 184 186 187 189 190 191 194
104 107 109 112 114 116 117 116 114 114 115 116 122 128 130 125 110 100 122 133 134 132 132 143 145 144 140 141 149 156 164 171 178 181 181 181 184 187 190 192 195 198 200 203
103 105 107 110 112 116 116 114 108 105 103 102 103 109 116 122 127 132 127 133 136 129 125 138 146 151 149 148 158 167 174 180 183 182 184 186 191 194 197 200 204 205 206 210
98 98 97 97 104 110 115 115 115 116 116 111 102 102 105 103 111 117 121 129 131 128 128 134 144 150 155 163 172 177 180 181 183 188 196 201 205 207 209 210 212 214 215 216
92 92 91 87 84 91 101 110 116 118 120 121 116 111 114 115 113 115 115 118 127 132 135 141 152 162 170 178 183 187 191 197 202 205 208 210 210 213 218 220 221 221 220 220
Height
1479 1475 1476 1476 1479 1486 1489 1494 1502 1496 1494 1482 1477 1477 1479 1482 1485 1488 1491 1494 1496 1499 1501 1504 1505 1507 1509 1511 1513 1514 1516 1517 1518 1519 1520 1521 1522 1523 1524 1525 1527 1528 1529 1530
1478 1473 1474 1475 1475 1479 1480 1483 1486 1484 1484 1471 1472 1475 1478 1481 1483 1486 1488 1491 1495 1498 1500 1502 1504 1506 1508 1510 1512 1514 1515 1517 1518 1519 1520 1521 1522 1522 1524 1525 1526 1526 1527 1528
1487 1476 1475 1484 1474 1475 1475 1474 1477 1481 1474 1469 1471 1472 1473 1476 1480 1483 1486 1489 1493 1496 1498 1501 1503 1505 1508 1510 1512 1513 1515 1516 1517 1518 1519 1520 1521 1522 1523 1524 1525 1526 1526 1527
1489 1484 1494 1478 1463 1464 1467 1468 1468 1467 1465 1465 1465 1467 1471 1474 1477 1480 1484 1488 1491 1495 1498 1500 1503 1505 1507 1509 1511 1513 1514 1515 1517 1518 1519 1520 1521 1522 1523 1524 1525 1526 1526 1527
1493 1492 1485 1471 1462 1463 1467 1468 1464 1464 1463 1465 1467 1470 1473 1474 1476 1480 1483 1487 1491 1494 1497 1499 1502 1504 1506 1509 1510 1512 1513 1515 1516 1517 1519 1520 1521 1522 1523 1524 1525 1526 1526 1527
1490 1490 1492 1472 1458 1458 1462 1469 1460 1460 1462 1464 1466 1474 1471 1471 1475 1479 1484 1487 1490 1493 1496 1499 1501 1504 1506 1507 1509 1511 1512 1514 1515 1517 1518 1519 1520 1521 1523 1524 1524 1525 1526 1527
1486 1485 1478 1462 1458 1458 1474 1470 1456 1457 1459 1461 1463 1464 1466 1469 1474 1479 1483 1487 1490 1493 1496 1498 1501 1503 1505 1506 1508 1510 1511 1513 1515 1516 1517 1519 1520 1521 1522 1523 1524 1525 1526 1527
1484 1484 1480 1459 1458 1462 1461 1454 1454 1455 1456 1459 1461 1464 1466 1469 1473 1477 1481 1486 1489 1492 1495 1498 1500 1502 1503 1505 1508 1509 1510 1512 1513 1515 1516 1517 1519 1520 1521 1522 1523 1524 1525 1526
1472 1471 1462 1459 1458 1457 1456 1454 1454 1454 1456 1459 1462 1464 1467 1470 1474 1478 1482 1485 1489 1492 1494 1497 1499 1501 1502 1504 1506 1508 1509 1510 1512 1514 1515 1516 1518 1519 1520 1521 1523 1524 1525 1526
1466 1462 1459 1457 1457 1455 1455 1454 1454 1455 1457 1460 1462 1465 1468 1472 1475 1479 1482 1485 1489 1491 1494 1496 1498 1499 1501 1503 1505 1506 1507 1509 1510 1512 1513 1515 1517 1518 1519 1521 1522 1523 1525 1526
1465 1461 1458 1457 1456 1455 1455 1455 1455 1457 1459 1461 1464 1466 1469 1472 1475 1479 1482 1485 1489 1491 1492 1495 1497 1498 1500 1501 1503 1504 1506 1507 1508 1510 1512 1513 1515 1517 1518 1520 1522 1523 1524 1526
1463 1459 1459 1458 1457 1456 1455 1455 1456 1458 1460 1464 1466 1468 1471 1473 1477 1479 1482 1485 1487 1490 1491 1493 1495 1497 1498 1500 1501 1503 1504 1505 1507 1509 1511 1512 1514 1515 1517 1520 1521 1523 1525 1526
1457 1457 1458 1457 1457 1457 1456 1457 1458 1459 1461 1464 1467 1470 1472 1474 1477 1480 1482 1484 1486 1488 1490 1492 1494 1495 1497 1498 1500 1501 1503 1504 1506 1508 1509 1511 1513 1514 1516 1519 1521 1523 1525 1526
1456 1456 1457 1457 1457 1457 1458 1459 1459 1460 1462 1465 1467 1470 1472 1475 1478 1480 1482 1484 1486 1488 1490 1491 1493 1494 1496 1497 1499 1500 1502 1504 1505 1507 1509 1511 1512 1514 1516 1518 1520 1522 1525 1527
1454 1455 1456 1456 1457 1458 1459 1459 1460 1461 1463 1465 1467 1470 1473 1475 1478 1481 1483 1484 1486 1488 1489 1491 1492 1493 1495 1496 1498 1499 1501 1503 1505 1506 1509 1511 1512 1514 1516 1518 1520 1522 1525 1527
1453 1454 1454 1455 1456 1458 1459 1460 1461 1462 1464 1465 1467 1470 1473 1475 1478 1481 1483 1485 1486 1488 1489 1491 1492 1493 1495 1496 1497 1499 1501 1503 1504 1506 1509 1511 1513 1515 1517 1519 1521 1523 1525 1528
1451 1451 1452 1454 1455 1457 1458 1460 1461 1462 1464 1466 1468 1470 1473 1475 1478 1480 1483 1485 1487 1489 1490 1491 1492 1493 1495 1496 1497 1499 1500 1503 1505 1507 1509 1511 1514 1516 1518 1520 1522 1524 1526 1529
1447 1449 1450 1451 1452 1455 1457 1459 1461 1463 1465 1466 1468 1471 1473 1475 1478 1480 1483 1485 1487 1489 1490 1491 1492 1494 1495 1497 1498 1500 1501 1503 1506 1508 1510 1512 1514 1517 1519 1521 1523 1525 1527 1530
1444 1446 1448 1449 1451 1453 1455 1458 1460 1463 1465 1467 1469 1471 1473 1476 1478 1481 1483 1485 1487 1489 1491 1492 1494 1495 1496 1498 1499 1501 1503 1505 1507 1509 1511 1513 1516 1518 1520 1522 1524 1526 1528 1531
1441 1443 1446 1448 1450 1452 1455 1457 1460 1462 1465 1467 1469 1471 1474 1476 1479 1481 1483 1486 1488 1490 1492 1493 1495 1496 1498 1499 1501 1503 1505 1507 1508 1510 1513 1515 1517 1519 1521 1523 1525 1527 1529 1531
1440 1442 1445 1447 1449 1452 1454 1457 1459 1461 1464 1467 1469 1472 1474 1477 1480 1482 1484 1486 1489 1491 1493 1495 1496 1498 1499 1501 1503 1505 1506 1508 1510 1512 1514 1516 1517 1519 1521 1523 1525 1527 1529 1531
1440 1442 1444 1447 1449 1451 1454 1457 1460 1462 1464 1467 1470 1473 1476 1478 1481 1483 1486 1488 1490 1492 1494 1496 1498 1499 1501 1503 1504 1506 1508 1510 1511 1513 1515 1516 1518 1520 1522 1523 1525 1527 1529 1530
1440 1442 1444 1447 1449 1452 1455 1458 1461 1463 1466 1468 1472 1475 1477 1480 1483 1485 1487 1490 1492 1494 1496 1497 1499 1501 1502 1504 1506 1508 1509 1511 1513 1514 1516 1517 1519 1520 1522 1523 1525 1527 1528 1530
1441 1443 1446 1448 1450 1453 1456 1459 1463 1465 1468 1471 1474 1477 1480 1482 1484 1487 1489 1491 1493 1495 1497 1499 1501 1502 1504 1506 1507 1509 1510 1512 1513 1515 1516 1518 1519 1520 1522 1523 1524 1526 1527 1528
1443 1445 1448 1450 1452 1455 1458 1461 1464 1468 1471 1473 1476 1479 1482 1484 1486 1488 1490 1492 1494 1496 1498 1500 1502 1503 1505 1507 1508 1510 1511 1513 1514 1515 1516 1518 1519 1520 1521 1522 1524 1525 1526 1527
1446 1449 1451 1454 1456 1459 1461 1464 1467 1470 1473 1476 1479 1481 1483 1486 1488 1490 1492 1494 1496 1498 1500 1501 1503 1504 1506 1507 1509 1510 1512 1513 1514 1515 1516 1517 1518 1519 1520 1521 1522 1523 1524 1525
1451 1453 1456 1458 1461 1463 1466 1468 1471 1473 1476 1478 1481 1483 1485 1487 1489 1491 1494 1496 1497 1499 1501 1503 1504 1505 1507 1508 1509 1510 1511 1513 1514 1515 1516 1517 1517 1518 1519 1520 1520 1521 1522 1522